This is the latest recevied weather packets stored in our database for station/object PU5BHV. If no packets are shown the sender has not sent any weather packets the latest 10 day(s).
| Time | Temp. | Humidity | Pressure | Rain* | Wind** | Luminosity | Snow |
|---|---|---|---|---|---|---|---|
| 1777737437 | 21.67° C | 94% | 1014.1 hPa | 0 mm | - | 80 W/m² | - |
| 1777737135 | 21.67° C | 95% | 1013.8 hPa | 0 mm | - | 84 W/m² | - |
| 1777736830 | 22.22° C | 96% | 1014 hPa | 0 mm | - | 78 W/m² | - |
| 1777736211 | 21.67° C | 96% | 1012.7 hPa | 0 mm | - | 107 W/m² | - |
| 1777735908 | 21.67° C | 96% | 1013.2 hPa | 0 mm | - | 118 W/m² | - |
| 1777735606 | 21.11° C | 97% | 1014.3 hPa | 0 mm | - | 101 W/m² | - |
| 1777735303 | 21.67° C | 98% | 1014.6 hPa | 0 mm | - | 133 W/m² | - |
| 1777735001 | 21.67° C | 98% | 1014.3 hPa | 0 mm | - | 123 W/m² | - |
| 1777734698 | 21.11° C | 98% | 1013.3 hPa | 0 mm | - | 100 W/m² | - |
| 1777734395 | 21.67° C | 98% | 1014.6 hPa | 0 mm | - | 80 W/m² | - |
| 1777734091 | 21.67° C | 98% | 1014.1 hPa | 0 mm | - | 68 W/m² | - |
| 1777733788 | 21.67° C | 97% | 1014.1 hPa | 0 mm | - | 76 W/m² | - |
| 1777733485 | 21.67° C | 97% | 1014.6 hPa | 0 mm | - | 88 W/m² | - |
| 1777733180 | 21.67° C | 97% | 1014.5 hPa | 0 mm | - | 115 W/m² | - |
| 1777732877 | 21.11° C | 97% | 1014.3 hPa | 0 mm | - | 147 W/m² | - |
| 1777732574 | 21.11° C | 97% | 1015 hPa | 0 mm | - | 167 W/m² | - |
| 1777732272 | 21.11° C | 97% | 1015.2 hPa | 0 mm | - | 181 W/m² | - |
| 1777731969 | 21.11° C | 96% | 1015.1 hPa | 0 mm | - | 109 W/m² | - |
| 1777731665 | 21.11° C | 97% | 1014.8 hPa | 0 mm | - | 92 W/m² | - |
| 1777731363 | 20.56° C | 97% | 1015.1 hPa | 0 mm | - | 107 W/m² | - |
| 1777731060 | 20.56° C | 99% | 1014.9 hPa | 0 mm | - | 88 W/m² | - |
| 1777730759 | 20.56° C | 99% | 1015.2 hPa | 0 mm | - | 98 W/m² | - |
| 1777730455 | 20.56° C | 99% | 1015.6 hPa | 0 mm | - | 82 W/m² | - |
| 1777730150 | 20.56° C | 99% | 1015.5 hPa | 1.27 mm | - | 86 W/m² | - |
| 1777729848 | 20.56° C | 99% | 1015.9 hPa | 1.27 mm | - | 92 W/m² | - |
* Rain latest hour (hover to see other rain measurements)
** Current wind speed in m/s (hover to see current wind gust speed)